FW5754 Weather Reports


Display with metric or nautical units.
time (UTC)temp
F
wind
direction
speed
MPH
gust
MPH
rain 1hr
in
rain 24hr
in
rain mn
in
humidity
%
barometer
mb
20260504012030 48 313 3.0 8.0 0.00 0.00 0.00 68 1011.4
20260504011541 47 313 2.0 6.0 0.00 0.00 0.00 70 1011.3
20260504011031 47 313 2.0 6.0 0.00 0.00 0.00 71 1011.1
20260504010532 47 313 2.0 6.0 0.00 0.00 0.00 71 1011.1
20260504010040 47 313 2.0 6.0 0.00 0.00 0.00 71 1011.0
20260504005532 47 313 3.0 6.0 0.00 0.00 0.00 74 1011.1
20260504005031 46 313 2.0 6.0 0.00 0.00 0.00 76 1011.0
20260504004540 46 313 2.0 6.0 0.00 0.00 0.00 77 1011.0
20260504004031 46 313 3.0 6.0 0.00 0.00 0.00 78 1011.1
20260504003533 46 315 1.0 5.0 0.00 0.00 0.00 78 1011.0
20260504003038 46 315 1.0 5.0 0.00 0.00 0.00 78 1010.9
20260504002534 46 315 1.0 3.0 0.00 0.00 0.00 77 1010.7
20260504002030 46 315 0.0 3.0 0.00 0.00 0.00 77 1010.7
20260504001550 47 315 1.0 3.0 0.00 0.00 0.00 77 1010.7
20260504001030 47 0 0.0 0.0 0.00 0.00 0.00 76 1010.6
20260504000530 48 0 0.0 1.0 0.00 0.00 0.00 75 1010.6
20260504000042 49 0 0.0 1.0 0.00 0.00 0.00 75 1010.6
20260503235534 50 0 0.0 0.0 0.00 0.00 0.00 75 1010.4
20260503235030 50 0 0.0 3.0 0.00 0.00 0.00 75 1010.4
20260503234601 51 0 0.0 3.0 0.00 0.00 0.00 76 1010.5
20260503234030 51 315 1.0 3.0 0.00 0.00 0.00 74 1010.4
20260503233531 -68 315 1.0 3.0 0.00 0.00 0.00 1010.3
20260503233046 51 315 1.0 3.0 0.00 0.00 0.00 73 1010.3
20260503232530 52 315 2.0 4.0 0.00 0.00 0.00 100 1010.3
20260503232033 -68 315 1.0 4.0 0.00 0.00 0.00 1010.3
20260503231538 -68 315 2.0 5.0 0.00 0.00 0.00 1010.3
20260503231031 -68 315 3.0 6.0 0.00 0.00 0.00 1010.3
20260503230533 -68 315 3.0 8.0 0.00 0.00 0.00 1010.2
20260503230044 -68 315 4.0 8.0 0.00 0.00 0.00 73 1010.2
20260503225530 -68 315 6.0 9.0 0.00 0.00 0.00 1010.3
20260503225030 -66 315 6.0 9.0 0.00 0.00 0.00 72 1010.2
20260503224543 52 315 7.0 10.0 0.00 0.00 0.00 70 1010.2
20260503224033 52 315 8.0 11.0 0.00 0.00 0.00 71 1010.1
20260503223530 52 315 9.0 12.0 0.00 0.00 0.00 69 1010.0
20260503223050 52 315 8.0 13.0 0.00 0.00 0.00 69 1010.1
20260503222530 52 315 10.0 13.0 0.00 0.00 0.00 69 1010.0
20260503222033 52 315 9.0 12.0 0.00 0.00 0.00 72 1010.0
20260503221548 -68 315 9.0 17.0 0.00 0.00 0.00 1010.0
20260503221030 52 315 11.0 20.0 0.00 0.00 0.00 70 1009.9
20260503220533 52 317 15.0 20.0 0.00 0.00 0.00 66 1009.8
20260503220040 52 314 15.0 21.0 0.00 0.00 0.00 67 1009.8
20260503215531 52 293 15.0 21.0 0.00 0.00 0.00 64 1009.8
20260503215033 -68 313 14.0 18.0 0.00 0.00 0.00 1009.8
20260503214535 52 317 14.0 19.0 0.00 0.00 0.00 1009.7
20260503214032 52 312 13.0 23.0 0.00 0.00 0.00 70 1009.7
20260503213531 -68 318 17.0 23.0 0.00 0.00 0.00 1009.7
20260503213038 -66 309 18.0 23.0 0.00 0.00 0.00 1009.5
20260503212530 51 313 16.0 22.0 0.00 0.00 0.00 67 1009.5
20260503212030 51 305 17.0 22.0 0.00 0.00 0.00 70 1009.6
20260503211542 158 302 17.0 22.0 0.00 0.00 0.00 100 1009.5
20260503211030 -68 296 16.0 21.0 0.00 0.00 0.00 1009.3
20260503210530 -68 291 17.0 21.0 0.00 0.00 0.00 1009.3
20260503210041 52 293 13.0 20.0 0.00 0.00 0.00 72 1009.3
20260503205530 -68 293 16.0 22.0 0.00 0.00 0.00 1009.2
20260503205030 52 292 18.0 22.0 0.00 0.00 0.00 68 1009.3
20260503204542 51 294 17.0 22.0 0.00 0.00 0.00 69 1009.2
20260503204029 51 287 15.0 19.0 0.00 0.00 0.00 71 1009.1
20260503203529 -68 291 16.0 20.0 0.00 0.00 0.00 71 1009.1
20260503203054 51 292 16.0 22.0 0.00 0.00 0.00 71 1009.1
20260503202530 51 293 17.0 22.0 0.00 0.00 0.00 70 1009.0
20260503202033 52 293 18.0 22.0 0.00 0.00 0.00 69 1009.0
20260503201549 52 286 17.0 22.0 0.00 0.00 0.00 70 1008.9
20260503201030 52 286 17.0 22.0 0.00 0.00 0.00 70 1008.9
20260503200530 52 301 17.0 22.0 0.00 0.00 0.00 68 1008.9
20260503200050 52 288 17.0 23.0 0.00 0.00 0.00 69 1008.9
20260503195530 52 289 16.0 23.0 0.00 0.00 0.00 69 1008.9
20260503195030 52 288 15.0 21.0 0.00 0.00 0.00 69 1008.9
20260503194555 52 282 13.0 21.0 0.00 0.00 0.00 71 1008.8
20260503194030 52 263 11.0 23.0 0.00 0.00 0.00 72 1008.9
20260503193532 52 274 13.0 23.0 0.00 0.00 0.00 70 1008.9
20260503193046 52 286 12.0 19.0 0.00 0.00 0.00 70 1008.8
20260503192530 51 278 15.0 19.0 0.00 0.00 0.00 65 1008.8
20260503192029 51 286 15.0 19.0 0.00 0.00 0.00 65 1008.8
20260503191537 51 288 14.0 19.0 0.00 0.00 0.00 68 1008.9
20260503191031 51 290 15.0 19.0 0.00 0.00 0.00 66 1008.8
20260503190530 51 284 13.0 18.0 0.00 0.00 0.00 70 1008.9
20260503190043 51 288 12.0 19.0 0.00 0.00 0.00 70 1008.9
20260503185530 51 292 15.0 21.0 0.00 0.00 0.00 68 1009.0
20260503185037 51 297 17.0 21.0 0.00 0.00 0.00 67 1009.1
20260503184544 51 292 15.0 21.0 0.00 0.00 0.00 67 1009.1
20260503184035 51 290 16.0 26.0 0.00 0.00 0.00 69 1009.1
20260503183533 50 291 18.0 26.0 0.00 0.00 0.00 67 1009.2
20260503183051 50 290 20.0 28.0 0.00 0.00 0.00 66 1009.2
20260503182534 50 296 22.0 28.0 0.00 0.00 0.00 67 1009.2
20260503182034 50 297 21.0 29.0 0.00 0.00 0.00 68 1009.2
20260503181544 50 300 22.0 31.0 0.00 0.00 0.00 68 1009.2
20260503181033 50 302 23.0 31.0 0.00 0.00 0.00 69 1009.2
20260503180534 50 302 22.0 29.0 0.00 0.00 0.00 67 1009.1
20260503180057 50 290 19.0 25.0 0.00 0.00 0.00 70 1009.3
20260503175535 50 289 20.0 26.0 0.00 0.00 0.00 71 1009.2
20260503175034 50 289 19.0 26.0 0.00 0.00 0.00 72 1009.2
20260503174543 50 288 21.0 26.0 0.00 0.00 0.00 72 1009.2
20260503174031 50 288 20.0 25.0 0.00 0.00 0.00 73 1009.1
20260503173534 50 293 19.0 27.0 0.00 0.00 0.00 74 1009.1
20260503173041 50 290 19.0 28.0 0.00 0.00 0.00 70 1009.0
20260503172534 50 298 22.0 28.0 0.00 0.00 0.00 68 1009.1
20260503172034 50 302 22.0 29.0 0.00 0.00 0.00 64 1009.1
20260503171545 50 310 21.0 31.0 0.00 0.00 0.00 66 1009.2
20260503171034 50 316 23.0 33.0 0.00 0.00 0.00 64 1009.0
20260503170536 50 312 24.0 33.0 0.00 0.00 0.00 66 1009.0
20260503150530 49 315 17.0 24.0 0.00 0.00 0.00 72 1009.0
20260503131029 46 304 17.0 22.0 0.00 0.00 0.00 73 1009.0
20260503130530 46 304 15.0 21.0 0.00 0.00 0.00 74 1009.2
20260503110532 44 321 18.0 22.0 0.00 0.00 0.00 73 1009.2
20260503081542 46 348 20.0 26.0 0.00 0.00 0.00 68 1008.6
20260503081034 46 346 19.0 25.0 0.00 0.00 0.00 68 1008.7
20260503080537 47 346 16.0 23.0 0.00 0.00 0.00 70 1008.6
20260503072533 47 352 11.0 18.0 0.00 0.00 0.00 69 1008.6
20260503072032 47 355 12.0 18.0 0.00 0.00 0.00 68 1008.3
20260503071601 47 352 13.0 19.0 0.00 0.00 0.00 68 1008.5
20260503071032 47 352 12.0 19.0 0.00 0.00 0.00 70 1008.8
20260503070534 47 355 13.0 18.0 0.00 0.00 0.00 70 1008.9
20260503055034 49 300 10.0 15.0 0.00 0.00 0.00 68 1009.6
20260503054556 49 300 11.0 16.0 0.00 0.00 0.00 68 1009.6
20260503054031 49 300 10.0 16.0 0.00 0.00 0.00 69 1009.7
20260503053532 49 300 11.0 16.0 0.00 0.00 0.00 68 1009.9
20260503053043 49 300 10.0 13.0 0.00 0.00 0.00 70 1009.8
20260503052534 49 300 9.0 12.0 0.00 0.00 0.00 70 1009.9
20260503052032 49 300 8.0 13.0 0.00 0.00 0.00 70 1010.3
20260503051539 49 300 10.0 13.0 0.00 0.00 0.00 69 1010.2
20260503051032 49 300 10.0 14.0 0.00 0.00 0.00 70 1010.0
20260503050532 49 300 11.0 14.0 0.00 0.00 0.00 70 1010.0
20260503050046 49 300 11.0 14.0 0.00 0.00 0.00 70 1010.0
20260503045534 49 300 10.0 15.0 0.00 0.00 0.00 70 1009.8
20260503045036 49 300 10.0 15.0 0.00 0.00 0.00 70 1009.9
20260503044543 49 300 11.0 16.0 0.00 0.00 0.00 70 1010.1
20260503044031 49 300 12.0 16.0 0.00 0.00 0.00 70 1010.4
20260503043533 49 298 13.0 16.0 0.00 0.00 0.00 71 1010.3
20260503043050 49 291 12.0 16.0 0.00 0.00 0.00 73 1010.4
20260503042534 49 282 12.0 16.0 0.00 0.00 0.00 74 1010.4
20260503042031 49 262 11.0 15.0 0.00 0.00 0.00 75 1010.4
20260503041543 49 259 11.0 14.0 0.00 0.00 0.00 78 1010.4
20260503041036 49 256 11.0 14.0 0.00 0.00 0.00 81 1010.4
20260503040531 48 248 11.0 14.0 0.00 0.00 0.00 84 1010.2
20260503040104 47 239 10.0 13.0 0.00 0.00 0.00 87 1010.4
20260503035531 47 232 5.0 8.0 0.00 0.00 0.00 88 1010.6
20260503035036 48 232 3.0 6.0 0.00 0.00 0.00 88 1010.4
20260503034538 48 232 3.0 6.0 0.00 0.00 0.00 88 1010.6
20260503034030 48 232 4.0 6.0 0.00 0.00 0.00 88 1010.4
20260503033532 48 232 3.0 6.0 0.00 0.00 0.00 88 1010.6
20260503033039 48 232 4.0 6.0 0.00 0.00 0.00 88 1010.6
20260503032532 48 232 4.0 6.0 0.00 0.00 0.00 88 1010.3
20260503032031 48 232 3.0 6.0 0.00 0.00 0.00 87 1010.3
20260503031555 48 232 3.0 6.0 0.00 0.00 0.00 87 1010.6
20260503031030 48 232 3.0 5.0 0.00 0.00 0.00 87 1010.6
20260503030533 48 232 2.0 5.0 0.00 0.00 0.00 87 1010.7
20260503030048 48 232 3.0 5.0 0.00 0.00 0.00 87 1010.6
20260503025534 48 232 3.0 4.0 0.00 0.00 0.00 87 1010.7
20260503025033 48 0 0.0 0.0 0.00 0.00 0.00 87 1010.6
20260503024539 48 0 0.0 0.0 0.00 0.00 0.00 87 1010.6
20260503024031 48 0 0.0 3.0 0.00 0.00 0.00 86 1010.6
20260503023531 48 0 0.0 3.0 0.00 0.00 0.00 86 1010.6
20260503023039 49 232 1.0 3.0 0.00 0.00 0.00 86 1010.7
20260503022530 49 0 0.0 4.0 0.00 0.00 0.00 86 1010.7
20260503022030 49 232 1.0 4.0 0.00 0.00 0.00 86 1010.7
20260503021544 49 232 1.0 4.0 0.00 0.00 0.00 86 1010.7
20260503021034 49 0 0.0 2.0 0.00 0.00 0.00 86 1010.7
20260503020533 49 0 0.0 4.0 0.00 0.00 0.00 86 1010.6
20260503020038 49 232 0.0 4.0 0.00 0.00 0.00 86 1010.7
20260503015533 49 232 1.0 3.0 0.00 0.00 0.00 85 1010.7
20260503015034 49 0 0.0 0.0 0.00 0.00 0.00 85 1010.7
20260503014603 49 0 0.0 3.0 0.00 0.00 0.00 85 1010.9
20260503014031 49 0 0.0 5.0 0.00 0.00 0.00 85 1010.8
20260503013531 50 232 2.0 6.0 0.00 0.00 0.00 85 1010.8
20260503013040 50 232 3.0 6.0 0.00 0.00 0.00 85 1010.8
20260503012537 50 232 4.0 7.0 0.00 0.00 0.00 85 1010.9